[[{"header":{"parameterUnit":"m.s-1","parameterCategory":1,"la1":30.2992,"la2":30.254,"lo1":-89.0895,"lo2":-89.0443,"dy":0.0025,"dx":0.0025,"nx":19,"ny":19,"refTime":"2026-04-11T21:00:00:Z","depth":0,"parameterNumber":2,"parameterNumberName":"U-component_of_WINDS"},"data":[0,0,0,-1.7922,-1.7925,-1.8074,-1.8074,-1.8259,-1.8261,0,0,0,0,0,0,0,0,0,0,0,-1.7872,-1.7873,-1.7922,-1.7925,-1.8074,-1.8074,-1.8259,-1.8261,0,0,0,0,0,0,0,0,0,0,0,-1.7872,-1.7873,-1.7874,-1.7926,-1.8074,-1.8075,-1.8259,-1.8149,0,0,0,0,0,0,0,0,0,0,-1.8006,-1.7953,-1.7872,-1.7874,-1.7927,-1.8073,-1.8075,-1.8144,-1.8156,-1.8189,0,-1.8214,0,-1.824,-1.8273,-1.8273,0,0,0,-1.7931,-1.7943,-1.7988,-1.7874,-1.7928,-1.8073,-1.8008,-1.8151,-1.8164,-1.8205,-1.8217,-1.8224,-1.8243,-1.8274,-1.8275,-1.8439,-1.844,0,0,-1.7923,-1.7896,-1.7979,-1.7997,-1.797,-1.8003,-1.8013,-1.8159,-1.8172,-1.8217,-1.8228,-1.8246,-1.8275,-1.8276,-1.8439,-1.8439,0,0,0,-1.7895,-1.789,-1.7932,-1.7989,-1.8016,-1.8008,-1.8018,-1.8165,-1.8181,-1.823,-1.8248,-1.8276,-1.8278,-1.8438,-1.8439,-1.8438,0,0,0,-1.7891,-1.7874,-1.7928,-1.7914,-1.8013,-1.8092,-1.8021,-1.8171,-1.8188,-1.8247,-1.8276,-1.828,-1.8438,-1.8439,-1.8436,-1.8442,0,0,0,-1.7865,-1.7872,-1.7891,-1.7912,-1.7975,-1.809,-1.8114,-1.8175,-1.8199,-1.8273,-1.828,-1.8437,-1.8439,-1.8435,-1.844,-1.8477,0,0,0,-1.783,-1.7889,-1.789,-1.7964,-1.7973,-1.8087,-1.8113,-1.8201,-1.8264,-1.8277,-1.8438,-1.8439,-1.8435,-1.8439,-1.8476,-1.8503,-1.8511,0,0,-1.789,-1.7895,-1.7941,-1.7946,-1.8052,-1.8066,-1.8174,-1.8259,-1.8292,-1.8389,-1.8394,-1.8437,-1.844,-1.8477,-1.857,-1.8576,0,0,0,-1.7951,-1.7983,-1.8017,-1.8075,-1.8139,-1.8196,-1.8266,-1.8298,-1.8381,-1.8335,-1.8461,-1.8464,-1.8487,-1.8501,-1.8507,-1.8528,-1.8444,-1.8444,-1.8444,-1.8,-1.8036,-1.8113,-1.8167,-1.8223,-1.8294,-1.8344,-1.84,-1.8422,-1.8451,-1.848,-1.8531,-1.8547,-1.8552,-1.8573,-1.8497,-1.8497,-1.8497,-1.8497,-1.8091,-1.8143,-1.8168,-1.8252,-1.8291,-1.8363,-1.8435,-1.8448,-1.8523,-1.8513,-1.8535,-1.852,-1.8558,-1.8579,-1.8498,-1.8498,-1.8498,-1.8498,-1.8498,-1.8127,-1.8158,-1.8193,-1.828,-1.8344,-1.8398,-1.8467,-1.8501,-1.8534,-1.8555,-1.8589,-1.859,-1.8594,-1.8569,-1.8569,-1.8569,-1.8569,-1.8569,-1.857,-1.8151,-1.819,-1.8243,-1.8315,-1.8356,-1.8415,-1.8487,-1.853,-1.8586,-1.8606,-1.8606,-1.8626,-1.8554,-1.8535,-1.8573,-1.8572,-1.8572,-1.8571,-1.8571,-1.8231,-1.8217,-1.8298,-1.8339,-1.8427,-1.8488,-1.8529,-1.8613,-1.8654,-1.8687,-1.8702,-1.8643,-1.8652,-1.8648,-1.8632,-1.8693,-1.8693,-1.8693,-1.8693,-1.8261,-1.8268,-1.8358,-1.8421,-1.8487,-1.8532,-1.8625,-1.8682,-1.874,-1.8768,-1.8764,-1.8747,-1.8741,-1.8753,-1.8747,-1.8733,-1.8818,-1.8818,-1.8818,-1.8313,-1.8327,-1.8398,-1.8451,-1.8521,-1.8582,-1.8671,-1.8745,-1.8808,-1.8824,-1.879,-1.8785,-1.8757,-1.8746,-1.8762,-1.8751,-1.8727,0,0]},{"header":{"parameterUnit":"m.s-1","parameterCategory":1,"la1":30.2992,"la2":30.254,"lo1":-89.0895,"lo2":-89.0443,"dy":0.0025,"dx":0.0025,"nx":19,"ny":19,"refTime":"2026-04-11T21:00:00:Z","depth":0,"parameterNumber":3,"parameterNumberName":"V-component_of_WINDS"},"data":[0,0,0,4.9962,4.9964,5.0032,5.0033,5.0133,5.0134,0,0,0,0,0,0,0,0,0,0,0,4.9952,4.9953,4.9962,4.9964,5.0032,5.0033,5.0133,5.0134,0,0,0,0,0,0,0,0,0,0,0,4.9952,4.9953,4.9955,4.9964,5.0032,5.0033,5.0133,5.0076,0,0,0,0,0,0,0,0,0,0,5.0007,5.0009,4.9953,4.9955,4.9965,5.0032,5.0033,5.0073,5.008,5.0109,0,5.014,0,5.0139,5.0142,5.0143,0,0,0,4.9955,5.0004,5.0013,4.9955,4.9966,5.0032,4.9999,5.0076,5.0084,5.0118,5.0141,5.0144,5.0141,5.0143,5.0144,5.0346,5.0347,0,0,4.9952,4.997,5.0008,5.0018,5.0011,4.9997,5.0001,5.0081,5.0107,5.0141,5.0147,5.0142,5.0144,5.0145,5.0344,5.0346,0,0,0,4.9947,4.9968,4.9974,5.0014,5.0026,4.9999,5.0004,5.0103,5.0104,5.0147,5.0144,5.0144,5.0146,5.0343,5.0345,5.0428,0,0,0,4.9944,4.9964,4.9973,4.9985,5.0025,5.0066,5.0025,5.0098,5.0107,5.0143,5.0144,5.0147,5.0341,5.0344,5.0423,5.0464,0,0,0,4.9944,4.9964,4.9978,4.9986,5.0016,5.0064,5.0069,5.01,5.0105,5.0143,5.0147,5.034,5.0343,5.0418,5.0456,5.0521,0,0,0,4.9949,5.0051,4.998,5.0092,5.0016,5.0117,5.0069,5.0142,5.0185,5.0145,5.0342,5.0345,5.0416,5.0451,5.0516,5.0579,5.0607,0,0,5.0088,5.0068,5.0133,5.0071,5.0189,5.0105,5.0234,5.0255,5.0241,5.0311,5.0316,5.0425,5.0455,5.052,5.0762,5.0785,0,0,0,5.0183,5.0229,5.0257,5.0299,5.0319,5.0338,5.0338,5.0345,5.0404,5.0282,5.0466,5.0484,5.0521,5.055,5.0569,5.0599,5.0359,5.0359,5.0359,5.0403,5.0382,5.0486,5.0473,5.0514,5.0513,5.0544,5.0553,5.0519,5.0563,5.0582,5.0732,5.0767,5.0781,5.0812,5.0615,5.0615,5.0616,5.0616,5.0602,5.0664,5.0616,5.0701,5.0676,5.0746,5.0748,5.0721,5.0781,5.0715,5.0747,5.0675,5.0806,5.0832,5.0622,5.0621,5.062,5.062,5.0619,5.0743,5.0768,5.0777,5.0836,5.0883,5.0865,5.0925,5.09,5.0878,5.0909,5.0926,5.0925,5.0919,5.092,5.092,5.0921,5.0921,5.0921,5.0922,5.0884,5.0892,5.0946,5.0976,5.0999,5.1027,5.1027,5.1048,5.1066,5.1043,5.1043,5.1002,5.0824,5.0779,5.093,5.0928,5.0927,5.0927,5.0926,5.1091,5.1041,5.1125,5.1148,5.118,5.1228,5.1197,5.1243,5.1257,5.1287,5.124,5.1113,5.1091,5.1075,5.1037,5.1246,5.1246,5.1246,5.1246,5.1208,5.1195,5.1275,5.1314,5.135,5.133,5.1423,5.1424,5.1416,5.1423,5.139,5.1338,5.1324,5.131,5.1289,5.1253,5.1512,5.1512,5.1512,5.1333,5.1323,5.1408,5.1401,5.1424,5.1444,5.153,5.1575,5.1556,5.1523,5.1427,5.1416,5.1333,5.1307,5.127,5.1239,5.1172,0,0]}]]